Starlink 32083

operational
NORAD ID: 60343 Int'l Des: 2024-136 Owner: SPXS Country: US Constellation: starlink
LEOCIRCULAR

About Starlink 32083

Description loading...

Live Position

Loading 3D Globe...

Upcoming Passes

Altitude History

Altitude vs Time

uPlot chart will show altitude changes over time

Two-Line Element Set

1 60343U 24136Q 25306.44699182 .00001746 00000-0 71057-4 0 9993
2 60343 53.1608 306.6235 0001307 97.8472 262.2677 15.30194967 70187
Epoch: Nov 2, 2025 • Age: 26 hours

Current Status

Altitude 475.0 km
Velocity 7.63 km/s
Sub-Earth Point 10.50°N, 117.35°W
Launch Date Aug 2, 2024
Age 1.2 years
Type internet

Technical Details

Classification Payload
Mass 730.00 kg
Dry Mass 700.00 kg
Total Mass 730.00 kg
Length 0.30 m
Diameter 4.10 m
Span 29.00 m
Shape Box + pan
Manufacturer SPXS
Bus Type Starlink V2M
Phase Status In Orbit
Owner/State SPXS/US

Large Constellations

Loading constellations...